Regional Weather Roundup
Issued by NWS

Home | Current Version | Previous Version | Graphics & Text | Print | Product List | Glossary On
Versions: 1 2 3 4 5 6 7 8 9 10 11 12 13 14 15 16 17 18 19 20 21 22 23 24 25 26 27 28
000
ASUS45 KTFX 181010
RWRMT
MONTANA REGIONAL WEATHER ROUNDUP
NATIONAL WEATHER SERVICE GREAT FALLS MT
400 AM MDT FRI AUG 18 2017

NOTE: "FAIR" INDICATES FEW OR NO CLOUDS BELOW 12000 FEET WITH NO
SIGNIFICANT WEATHER AND/OR OBSTRUCTIONS TO VISIBILITY.

MTZ001>007-043-181100-
WEST OF THE DIVIDE

CITY           SKY/WX    TMP DP  RH WIND       PRES   REMARKS
KALISPELL        N/A     49  43  80 N5        30.05S
MISSOULA         N/A     56  42  59 SE5       30.11R
BUTTE          CLOUDY    44  34  67 SE6       30.22S
MULLAN PASS      N/A     56  34  43 W5        30.22S
ANACONDA         N/A     54  36  50 SW8       30.18S
DEER LODGE       N/A     52  36  54 W5        30.19S
EUREKA           N/A     55  43  62 MISG      30.02F
HAMILTON         N/A     61  36  39 SE10      30.12S
LIBBY            N/A     50  43  76 CALM      30.04S
PLAINS           N/A     51  40  66 CALM      30.07S
RONAN            N/A     50  43  77 CALM      30.11S
$$

MTZ008-052>055-181100-
SOUTHWEST MONTANA

CITY           SKY/WX    TMP DP  RH WIND       PRES   REMARKS
BOZEMAN        CLEAR     47  40  76 SE7       30.14F
DILLON         CLEAR     55  34  45 S10       30.19S
W YELLOWSTONE  CLEAR     39  37  93 CALM      30.28S
ENNIS          CLOUDY    48  39  71 CALM      30.24S
THREE FORKS      N/A     45  38  76 CALM      30.11S
TWIN BRIDGES     N/A     48  33  56 CALM      30.15R
$$

MTZ009-010-012-014-046-048-049-054-181100-
EAST SLOPES AND CENTRAL MONTANA

CITY           SKY/WX    TMP DP  RH WIND       PRES   REMARKS
CUT BANK         N/A     56  40  55 W6        30.02F
GREAT FALLS    CLEAR     56  35  45 SW12      30.04F
MALMSTROM AFB  CLEAR     60  38  44 SW8       30.03F
HELENA         CLEAR     62  39  42 SE3       30.11S
AUGUSTA          N/A     57  34  40 W7        30.07F
BOWMANS CRNR   MOCLDY    57  36  46 SW9       30.07F
CHOTEAU          N/A     59  36  41 SW8       30.06F
CONRAD           N/A     50  40  68 W3        30.04F
FAIRFIELD        N/A     57  35  43 S3        30.04F
POWER            N/A     53  35  50 W6        30.03F
RAYNESFORD       N/A     52  37  55 CALM      30.07F
ULM              N/A     57  36  45 CALM      30.05S
$$

MTZ011-013-016-021-045-047-050-051-181100-
NORTH CENTRAL MONTANA

CITY           SKY/WX    TMP DP  RH WIND       PRES   REMARKS
HAVRE          CLEAR     53  35  50 SW5       29.97F
LEWISTOWN      CLOUDY    52  35  52 SE6       30.07F
N BAR RANCH      N/A     54  34  47 CALM      30.12S
CHINOOK          N/A     54  45  71 CALM      29.96F
DENTON           N/A     53  36  53 SE9       30.01F
GEYSER           N/A     57  36  44 SW12      30.06F
GRASS RANGE      N/A     56  35  44 W6        30.02F
JUDITH GAP       N/A     54  34  46 S14       30.10F
WINIFRED       MOCLDY    62  34  35 N3        30.02F
$$

MTZ017>020-022>027-061-062-181100-
NORTHEAST MONTANA

CITY           SKY/WX    TMP DP  RH WIND       PRES   REMARKS
GLASGOW        CLEAR     58  46  64 SE3       29.96S
JORDAN           N/A     51  34  52 W3        29.98S
SIDNEY         CLOUDY    62  58  86 NW5       29.94F
WOLF POINT     PTCLDY    54  46  74 W3        29.97F
MALTA          CLOUDY    52  46  82 CALM      29.97S
PLENTYWOOD       N/A     57  50  77 CALM      29.96F
POPLAR           N/A     61  54  77 N5        29.97S
SCOBEY           N/A     53  43  69 CALM      29.97R
$$

MTZ028>42-056>058-181100-
SOUTHCENTRAL AND SOUTHEAST MONTANA

CITY           SKY/WX    TMP DP  RH WIND       PRES   REMARKS
BAKER          PTCLDY    56  46  69 CALM      30.00S
BILLINGS       CLEAR     64  35  34 SW12      30.05F
LIVINGSTON     CLEAR     49  37  63 NW7       30.14S
MILES CITY     CLEAR     56  38  50 W6        29.97F
BIG TIMBER     CLOUDY    54  37  54 SW7       30.14F
EKALAKA          N/A     56  38  50 SE3       30.00S
HARLOWTON        N/A     52  34  50 MISG      30.10F
LAUREL           N/A     56  36  47 SW5       30.05F
$$

REGIONAL REPORTS...DAKOTAS

CITY           SKY/WX    TMP DP  RH WIND       PRES   REMARKS
WILLISTON      CLOUDY    60  55  83 CALM      29.95F
MINOT          CLOUDY    61  56  83 S3        29.88R
DICKINSON      PTCLDY    54  49  83 W3        29.96R
BEACH          MOCLDY    48  50 100 N12       30.03R
CROSBY           N/A     52  52 100 W5        29.95S
TIOGA            N/A     52  54 100 W6        29.95F
WATFORD CITY     N/A     57  54  88 SE5       29.96R
BISMARCK       CLOUDY    62  58  86 N8        29.89R
GRAND FORKS    PTCLDY    60  58  92 CALM      29.82F
FARGO          CLOUDY    66  60  81 SW8       29.86S
BUFFALO SD       N/A     62  44  51 NW6       29.93S
RAPID CITY     PTCLDY    61  46  57 NW7       29.99F
$$

REGIONAL REPORTS...WYOMING/IDAHO/WASHINGTON

CITY           SKY/WX    TMP DP  RH WIND       PRES   REMARKS
GILLETTE       CLEAR     63  43  48 SW14      30.08F
SHERIDAN       CLEAR     51  41  68 CALM      30.07F
BUFFALO WY     CLEAR     60  33  36 W7        30.14S
CODY           CLEAR     61  38  42 SW9       30.16F
YELLOWSTONE LA   N/A     37  35  92 NW3       30.36S
IDAHO FALLS    CLEAR     52  41  66 CALM      30.16S
SALMON         CLEAR     51  41  68 CALM      30.17R
BOISE            N/A     62  39  42 SW5       30.05S
SPOKANE          N/A     60  41  49 S9        30.04S
$$

REGIONAL REPORTS...ALBERTA

CITY           SKY/WX    TMP DP  RH WIND       PRES   REMARKS
EDMONTON       CLEAR     55  50  82 SW7       29.88F
CALGARY        CLEAR     50  45  81 SW5       29.96F SMOKE
LETHBRIDGE     CLEAR     59  43  55 SW9       29.94F
MEDICINE HAT   CLEAR     57  45  62 NE3       29.93S
$$

REGIONAL REPORTS...SASKATCHEWAN

CITY           SKY/WX    TMP DP  RH WIND       PRES   REMARKS
SWIFT CURRENT  CLEAR     50  43  76 SW12      29.97S
REGINA         CLEAR     45  41  87 W7        29.93S
SASKATOON      CLEAR     48  46  93 W8        29.93R
$$




USA.gov is the U.S. government's official web portal to all federal, state and local government web resources and services.